Location: Riverton
(43.0250°N, 108.3790°W)
Time: 19:27:20
(UTC-07:00)

Amateur Radio Satellites - All Passes

Search period start: 10 February 2016 18:57
Search period end: 11 February 2016 18:57
Location: Riverton, 43.0250°N, 108.3790°W

Satellite Date Start Highest point End Downlink Frequencies (MHz)
Time Altitude Azimuth
GOMX 1 10 Feb 19:03:36 19:08:54 56° 260° (W) 19:14:00 467.674
CUTE-I 10 Feb 19:18:13 19:20:47 13° 271° (W) 19:23:22 437.470
COMPASS 1 10 Feb 19:18:39 19:22:07 26° 68° (ENE) 19:25:36 437.405
STRAND 1 10 Feb 19:22:36 19:27:46 66° 102° (ESE) 19:32:53 437.568
Oscar 11 10 Feb 19:27:06 19:28:56 13° 61° (ENE) 19:30:46 145.826/435.025
PCSat 10 Feb 19:27:13 19:32:34 55° 55° (NE) 19:37:53 145.827
CINEMA 3 10 Feb 19:28:51 19:33:18 52° 74° (ENE) 19:37:37 145.822/145.860
CUTE 1.7 + AOD 2 10 Feb 19:28:59 19:33:07 60° 75° (ENE) 19:37:18 437.475
UWE-3 10 Feb 19:30:39 19:32:57 14° 64° (ENE) 19:35:14 435.000/436.395/437.385
CUBEBUG 2 10 Feb 19:30:57 19:34:04 20° 66° (ENE) 19:37:09 437.445
PRISM 10 Feb 19:32:21 19:35:48 24° 95° (E) 19:39:13 437.425
SEEDS 10 Feb 19:33:48 19:37:51 51° 73° (ENE) 19:41:57 437.485
BRITE-PL 10 Feb 19:42:58 19:46:21 16° 271° (W) 19:49:43 437.365/2234.400
AAUSAT CUBESAT 2 10 Feb 19:45:53 19:49:46 42° 72° (ENE) 19:53:43 437.432
ISS 10 Feb 19:49:30 19:52:01 20° 11° (N) 19:54:32 145.825
GONETS M04 10 Feb 20:01:00 20:09:50 75° 80° (E) 20:18:40
AIST 2 10 Feb 20:09:03 20:12:37 27° 314° (NW) 20:16:13 435.215
HO-68 10 Feb 20:11:50 20:18:50 55° 259° (W) 20:25:55 435.675
CANX-2 10 Feb 20:14:36 20:18:30 36° 263° (W) 20:22:26 2200.000
DOVE 4 10 Feb 20:19:52 20:23:30 20° 267° (W) 20:27:03 437.250
ZACube-1 10 Feb 20:20:49 20:24:36 33° 70° (ENE) 20:28:21 437.345
RS-15 10 Feb 20:24:09 20:36:24 84° 56° (NE) 20:48:47 29.354- 29.394
FUNcube-1 10 Feb 20:29:13 20:33:07 39° 71° (ENE) 20:37:00 145.935
HUMSAT D 10 Feb 20:33:00 20:35:08 14° 63° (ENE) 20:37:16 437.325/437.525
AO-85 10 Feb 20:33:38 20:36:40 16° 253° (WSW) 20:39:34 145.980
Cosmos 2499 10 Feb 20:40:59 20:49:19 60° 77° (ENE) 20:56:59 435.465 / 435.565
DELFI C3 10 Feb 20:52:06 20:55:57 51° 73° (ENE) 20:59:50 145.870
COMPASS 1 10 Feb 20:54:05 20:57:37 27° 265° (W) 21:01:11 437.405
Oscar 11 10 Feb 21:00:14 21:04:30 69° 259° (WSW) 21:08:49 145.826/435.025
STRAND 1 10 Feb 21:03:03 21:06:24 18° 300° (WNW) 21:09:45 437.568
UWE-3 10 Feb 21:04:51 21:09:01 54° 260° (W) 21:13:08 435.000/436.395/437.385
CUBEBUG 2 10 Feb 21:06:28 21:10:29 38° 262° (W) 21:14:26 437.445
PRISM 10 Feb 21:07:30 21:11:07 29° 292° (WNW) 21:14:43 437.425
CUTE 1.7 + AOD 2 10 Feb 21:07:46 21:09:23 12° 271° (W) 21:11:01 437.475
CINEMA 3 10 Feb 21:07:58 21:10:43 16° 268° (W) 21:13:25 145.822/145.860
PCSat 10 Feb 21:11:26 21:15:34 22° 253° (WSW) 21:19:40 145.827
SEEDS 10 Feb 21:11:41 21:13:53 14° 270° (W) 21:16:06 437.485
DX 1 10 Feb 21:17:14 21:18:04 10° 59° (ENE) 21:18:54 434.975-435.025
ESTCUBE 1 10 Feb 21:20:53 21:22:46 12° 60° (ENE) 21:24:39 437.505/2401.250
AAUSAT CUBESAT 2 10 Feb 21:22:50 21:25:29 17° 268° (W) 21:28:11 437.432
ISS 10 Feb 21:25:42 21:28:56 63° 30° (NNE) 21:32:09 145.825
ANTELSAT 10 Feb 21:27:47 21:29:09 11° 90° (E) 21:30:32 437.575/2403.000
TIGRISAT 10 Feb 21:33:49 21:35:44 13° 90° (E) 21:37:39 435.000
AIST 1 10 Feb 21:43:56 21:48:18 82° 79° (E) 21:52:37
ZACube-1 10 Feb 21:57:47 22:00:59 21° 266° (W) 22:04:09 437.345
GONETS M04 10 Feb 21:59:09 22:05:43 24° 280° (W) 22:12:20
HUMSAT D 10 Feb 22:06:22 22:10:21 53° 260° (W) 22:14:22 437.325/437.525
FUNcube-1 10 Feb 22:06:41 22:09:33 18° 267° (W) 22:12:24 145.935
VELOX 1 10 Feb 22:11:53 22:15:55 34° 69° (ENE) 22:19:58 145.980
UNISAT 6 10 Feb 22:17:06 22:21:11 39° 98° (E) 22:25:19 437.425
50 SAT 10 Feb 22:26:54 22:30:31 56° 74° (ENE) 22:34:11 437.505
AISAT 10 Feb 22:28:24 22:32:44 53° 72° (ENE) 22:37:07 437.250
DELFI C3 10 Feb 22:29:23 22:31:10 13° 270° (W) 22:33:00 145.870
Cosmos 2499 10 Feb 22:35:00 22:41:47 29° 278° (W) 22:48:12 435.465 / 435.565
UKube-1 10 Feb 22:35:22 22:39:36 56° 73° (ENE) 22:43:52 .
RS-15 10 Feb 22:37:51 22:47:35 30° 258° (WSW) 22:57:24 29.354- 29.394
SPROUT 10 Feb 22:43:50 22:47:10 22° 67° (ENE) 22:50:31 437.525
CUBEBUG 1 10 Feb 22:44:53 22:49:17 63° 74° (ENE) 22:53:41 437.445
POPSAT HIP 1 10 Feb 22:48:11 22:51:17 20° 93° (E) 22:54:21 437.405
DX 1 10 Feb 22:49:10 22:53:34 87° 256° (WSW) 22:57:59 434.975-435.025
TISAT 1 10 Feb 22:51:33 22:52:20 10° 60° (ENE) 22:53:05 437.305
NANOSAT C BR1 10 Feb 22:52:06 22:55:19 21° 94° (E) 22:58:32 145.865
DUCHIFAT 1 10 Feb 22:53:04 22:56:14 21° 94° (E) 22:59:24 145.980
ESTCUBE 1 10 Feb 22:54:25 22:58:56 77° 256° (WSW) 23:03:31 437.505/2401.250
QB50P1 10 Feb 23:00:21 23:03:56 27° 96° (E) 23:07:31 145.935-145.965
ANTELSAT 10 Feb 23:01:59 23:06:19 69° 286° (WNW) 23:10:43 437.575/2403.000
ISS 10 Feb 23:02:55 23:05:04 17° 227° (SW) 23:07:13 145.825
TIGRISAT 10 Feb 23:08:31 23:12:47 61° 287° (WNW) 23:17:09 435.000
VELOX 1 10 Feb 23:48:52 23:52:27 24° 265° (W) 23:56:04 145.980
BUGSAT 1 10 Feb 23:49:25 23:53:19 44° 99° (E) 23:57:09 437.445
POLYITAN 1 10 Feb 23:52:59 23:57:12 76° 286° (WNW) 00:01:24 437.675
QB50P2 10 Feb 23:53:35 23:57:48 73° 285° (WNW) 00:02:00 145.880/145.840
PHONESAT 2.4 10 Feb 23:53:48 23:55:23 13° 150° (SSE) 23:56:59 2401.200-2431.200
UNISAT 6 10 Feb 23:54:27 23:57:41 21° 294° (WNW) 00:00:57 437.425
ITUPSAT 1 10 Feb 23:59:18 00:01:12 12° 59° (ENE) 00:03:07 437.325
BEESAT 11 Feb 00:06:14 00:08:49 15° 60° (ENE) 00:11:24 436.000
AISAT 11 Feb 00:06:55 00:09:33 15° 269° (W) 00:12:11 437.250
DANDE 11 Feb 00:13:23 00:15:33 11° 73° (ENE) 00:17:45 436.750
UKube-1 11 Feb 00:13:46 00:16:00 14° 269° (W) 00:18:15 .
SPROUT 11 Feb 00:19:02 00:22:57 34° 263° (W) 00:26:54 437.525
BEESAT 3 11 Feb 00:20:13 00:22:39 15° 40° (NE) 00:25:05 437.485
TISAT 1 11 Feb 00:23:07 00:27:21 81° 259° (WSW) 00:31:36 437.305
POPSAT HIP 1 11 Feb 00:23:20 00:27:12 36° 290° (WNW) 00:31:02 437.405
CUBEBUG 1 11 Feb 00:24:01 00:25:59 13° 270° (W) 00:27:58 437.445
NANOSAT C BR1 11 Feb 00:27:21 00:31:09 33° 290° (WNW) 00:34:55 145.865
DUCHIFAT 1 11 Feb 00:28:15 00:32:03 34° 290° (WNW) 00:35:49 145.980
QB50P1 11 Feb 00:36:08 00:39:40 27° 292° (WNW) 00:43:11 145.935-145.965
BEESAT 2 11 Feb 00:46:20 00:49:08 18° 42° (NE) 00:51:54 435.950
Cosmos 2491 11 Feb 00:51:43 00:58:48 26° 65° (ENE) 01:05:51 435.465 / 435.565
SWISSCUBE 11 Feb 00:56:21 01:00:53 46° 70° (ENE) 01:05:28 437.505
CUSAT 1 11 Feb 01:06:05 01:13:38 47° 91° (E) 01:21:09 437.405
Oscar 19 11 Feb 01:12:37 01:17:23 38° 97° (E) 01:22:07 437.125/150
BUGSAT 1 11 Feb 01:25:53 01:28:20 16° 296° (WNW) 01:30:48 437.445
KKS-1 11 Feb 01:27:14 01:29:13 13° 60° (ENE) 01:31:11 437.445
PHONESAT 2.4 11 Feb 01:29:02 01:32:07 38° 166° (SSE) 01:35:12 2401.200-2431.200
ITUPSAT 1 11 Feb 01:33:34 01:38:20 85° 255° (WSW) 01:43:10 437.325
BEESAT 11 Feb 01:41:17 01:46:01 71° 257° (WSW) 01:50:48 436.000
YUBILEINY 11 Feb 01:44:24 01:50:24 21° 78° (ENE) 01:56:24 435.215
DANDE 11 Feb 01:49:04 01:56:41 57° 92° (E) 02:04:56 436.750
Gurwin Techsat 1B 11 Feb 01:53:19 01:58:11 35° 97° (E) 02:03:00 435.225
BEESAT 3 11 Feb 01:56:55 02:00:52 69° 238° (WSW) 02:04:46 437.485
JAS-2 11 Feb 02:05:25 02:11:07 78° 103° (ESE) 02:16:21 435.910
BEESAT 2 11 Feb 02:23:26 02:27:22 56° 240° (WSW) 02:31:14 435.950
ITAMSAT 1 11 Feb 02:24:08 02:28:55 35° 97° (E) 02:33:40 435.822/435.867
SWISSCUBE 11 Feb 02:35:28 02:38:56 20° 267° (W) 02:42:24 437.505
STARS 11 Feb 02:40:42 02:44:46 38° 70° (ENE) 02:48:51 437.465
Cosmos 2491 11 Feb 02:47:46 02:56:28 72° 267° (W) 03:05:11 435.465 / 435.565
CUSAT 1 11 Feb 02:48:25 02:55:58 43° 289° (WNW) 03:03:26 437.405
AIST 2 11 Feb 02:50:41 02:54:26 32° 48° (NE) 02:58:09 435.215
Oscar 19 11 Feb 02:52:14 02:56:33 28° 295° (WNW) 03:00:51 437.125/150
KKS-1 11 Feb 03:00:45 03:05:12 72° 257° (WSW) 03:09:41 437.445
MOZHAYETS 4 11 Feb 03:03:38 03:07:59 46° 71° (ENE) 03:12:22
PHONESAT 2.4 11 Feb 03:05:57 03:09:11 54° 182° (S) 03:12:23 2401.200-2431.200
AO-7 11 Feb 03:08:58 03:16:05 30° 95° (E) 03:23:07 29.400- 29.500
DANDE 11 Feb 03:32:45 03:40:01 37° 292° (WNW) 03:47:42 436.750
Gurwin Techsat 1B 11 Feb 03:33:22 03:38:02 32° 294° (WNW) 03:42:42 435.225
YUBILEINY 11 Feb 03:37:14 03:46:02 84° 278° (W) 03:54:56 435.215
CUBESAT XI-V 11 Feb 03:49:40 03:52:33 16° 62° (ENE) 03:55:28 437.345
JAS-2 11 Feb 03:52:12 03:55:23 15° 304° (NW) 03:58:26 435.910
ITAMSAT 1 11 Feb 04:03:43 04:08:18 31° 294° (WNW) 04:12:52 435.822/435.867
SO-50 11 Feb 04:05:48 04:10:01 30° 114° (ESE) 04:14:18 436.795
M-CUBED/EXP-1 PRIME 11 Feb 04:06:49 04:09:43 25° 103° (ESE) 04:12:46 437.505
AUBIESAT-1 11 Feb 04:15:21 04:18:21 27° 103° (ESE) 04:21:30 437.475
STARS 11 Feb 04:17:57 04:21:16 21° 266° (W) 04:24:36 437.465
HORYU 2 11 Feb 04:18:14 04:22:24 38° 98° (E) 04:26:34 437.375
Cosmos 2504 11 Feb 04:20:46 04:28:49 46° 87° (E) 04:37:07 435.465 / 435.565
AIST 2 11 Feb 04:29:21 04:32:50 27° 246° (WSW) 04:36:19 435.215
MOZHAYETS 4 11 Feb 04:42:13 04:45:24 18° 268° (W) 04:48:35
PHONESAT 2.4 11 Feb 04:43:15 04:46:10 29° 199° (SSW) 04:49:02 2401.200-2431.200
Cosmos 2491 11 Feb 04:47:50 04:51:37 14° 287° (WNW) 04:55:25 435.465 / 435.565
AO-7 11 Feb 05:01:09 05:09:20 63° 294° (WNW) 05:17:27 29.400- 29.500
STRAND 1 11 Feb 05:03:18 05:05:59 14° 59° (ENE) 05:08:41 437.568
CUBESAT XI-V 11 Feb 05:24:49 05:29:27 60° 260° (W) 05:34:08 437.345
YUBILEINY 11 Feb 05:38:30 05:44:18 19° 300° (WNW) 05:50:11 435.215
M-CUBED/EXP-1 PRIME 11 Feb 05:41:44 05:44:17 20° 297° (WNW) 05:46:56 437.505
SO-50 11 Feb 05:45:45 05:50:24 40° 312° (NW) 05:55:05 436.795
AUBIESAT-1 11 Feb 05:50:16 05:52:49 20° 297° (WNW) 05:55:29 437.475
CUTE-I 11 Feb 05:51:20 05:56:00 29° 95° (E) 06:00:37 437.470
HORYU 2 11 Feb 05:55:20 05:58:44 22° 295° (WNW) 06:02:08 437.375
Cubesat XI-IV 11 Feb 06:05:16 06:10:19 39° 98° (E) 06:15:18 437.490
BRITE-PL 11 Feb 06:07:25 06:10:54 20° 91° (E) 06:14:11 437.365/2234.400
Cosmos 2504 11 Feb 06:14:06 06:22:13 43° 288° (WNW) 06:30:37 435.465 / 435.565
PRISM 11 Feb 06:23:05 06:26:15 21° 66° (ENE) 06:29:26 437.425
STRAND 1 11 Feb 06:39:22 06:44:29 81° 257° (WSW) 06:49:38 437.568
LilacSat-2 11 Feb 06:41:20 06:45:08 86° 104° (ESE) 06:48:56 437.200
O/OREOS (USA 219) 11 Feb 06:46:33 06:49:17 16° 100° (E) 06:52:02 437.305
AO-7 11 Feb 06:55:59 07:00:30 16° 316° (NW) 07:05:00 29.400- 29.500
GOMX 1 11 Feb 07:05:15 07:09:22 38° 97° (E) 07:13:18 467.674
GONETS M04 11 Feb 07:11:14 07:16:02 16° 75° (ENE) 07:20:50
CUTE-I 11 Feb 07:31:09 07:36:07 39° 292° (WNW) 07:41:03 437.470
SO-50 11 Feb 07:31:25 07:32:15 10° 333° (NNW) 07:33:06 436.795
HO-68 11 Feb 07:38:50 07:44:54 28° 94° (E) 07:50:56 435.675
BRITE-PL 11 Feb 07:45:12 07:49:38 40° 290° (WNW) 07:53:45 437.365/2234.400
Cubesat XI-IV 11 Feb 07:45:37 07:50:14 30° 295° (WNW) 07:54:50 437.490
PRISM 11 Feb 07:57:34 08:01:23 34° 262° (W) 08:05:14 437.425
CANX-2 11 Feb 07:58:29 08:02:25 34° 97° (E) 08:06:20 2200.000
DOVE 4 11 Feb 08:16:31 08:20:45 69° 284° (WNW) 08:24:51 437.250
O/OREOS (USA 219) 11 Feb 08:23:52 08:28:14 51° 297° (WNW) 08:32:40 437.305
ANTELSAT 11 Feb 08:28:06 08:29:46 12° 61° (ENE) 08:31:25 437.575/2403.000
TIGRISAT 11 Feb 08:34:01 08:36:03 13° 62° (ENE) 08:38:06 435.000
COMPASS 1 11 Feb 08:35:23 08:39:26 42° 98° (E) 08:43:27 437.405
GOMX 1 11 Feb 08:44:00 08:47:12 20° 296° (WNW) 08:50:17 467.674
Oscar 11 11 Feb 08:47:13 08:50:27 20° 93° (E) 08:53:41 145.826/435.025
CUTE 1.7 + AOD 2 11 Feb 08:48:37 08:52:55 75° 285° (WNW) 08:57:11 437.475
SEEDS 11 Feb 08:52:13 08:56:30 90° 77° (ENE) 09:00:46 437.485
UWE-3 11 Feb 08:53:38 08:57:10 25° 95° (E) 09:00:45 435.000/436.395/437.385
CUBEBUG 2 11 Feb 08:55:55 08:59:50 37° 98° (E) 09:03:48 437.445
CINEMA 3 11 Feb 08:59:28 09:03:36 69° 285° (WNW) 09:07:45 145.822/145.860
AAUSAT CUBESAT 2 11 Feb 09:02:26 09:06:39 71° 102° (ESE) 09:10:51 437.432
GONETS M04 11 Feb 09:02:42 09:11:23 82° 96° (E) 09:20:08
AO-85 11 Feb 09:07:16 09:11:15 21° 109° (ESE) 09:15:19 145.980
UNISAT 6 11 Feb 09:16:59 09:20:57 38° 71° (ENE) 09:24:55 437.425
Cosmos 2499 11 Feb 09:17:00 09:25:17 49° 88° (E) 09:33:42 435.465 / 435.565
HO-68 11 Feb 09:25:56 09:32:58 58° 292° (WNW) 09:39:58 435.675
CANX-2 11 Feb 09:34:44 09:38:06 23° 293° (WNW) 09:41:26 2200.000
POPSAT HIP 1 11 Feb 09:42:05 09:44:57 18° 65° (ENE) 09:47:49 437.405
ZACube-1 11 Feb 09:43:39 09:47:51 64° 101° (E) 09:52:08 437.345
NANOSAT C BR1 11 Feb 09:45:37 09:48:36 19° 65° (ENE) 09:51:35 145.865
DUCHIFAT 1 11 Feb 09:46:23 09:49:18 19° 65° (ENE) 09:52:14 145.980
HUMSAT D 11 Feb 09:49:19 09:52:35 22° 94° (E) 09:55:51 437.325/437.525
FUNcube-1 11 Feb 09:51:51 09:56:05 76° 102° (ESE) 10:00:23 145.935
QB50P1 11 Feb 09:53:56 09:57:20 24° 67° (ENE) 10:00:43 145.935-145.965
ANTELSAT 11 Feb 10:01:39 10:05:56 70° 257° (WSW) 10:10:13 437.575/2403.000
DELFI C3 11 Feb 10:03:50 10:07:54 77° 101° (E) 10:11:56 145.870
TIGRISAT 11 Feb 10:08:00 10:12:15 62° 258° (WSW) 10:16:30 435.000
PCSat 11 Feb 10:09:52 10:14:53 41° 112° (ESE) 10:19:58 145.827
COMPASS 1 11 Feb 10:11:49 10:14:42 18° 295° (WNW) 10:17:35 437.405
AIST 1 11 Feb 10:13:55 10:18:08 46° 93° (E) 10:22:22
Oscar 11 11 Feb 10:22:41 10:26:43 38° 289° (WNW) 10:30:44 145.826/435.025
UWE-3 11 Feb 10:30:00 10:33:37 28° 291° (WNW) 10:37:17 435.000/436.395/437.385
CUBEBUG 2 11 Feb 10:33:11 10:36:14 20° 294° (WNW) 10:39:21 437.445
CUBEBUG 1 11 Feb 10:35:26 10:36:22 11° 89° (E) 10:37:19 437.445
DX 1 11 Feb 10:37:54 10:40:23 15° 91° (E) 10:42:50 434.975-435.025
BUGSAT 1 11 Feb 10:39:55 10:43:45 36° 71° (ENE) 10:47:35 437.445
AAUSAT CUBESAT 2 11 Feb 10:40:06 10:41:34 12° 299° (WNW) 10:43:04 437.432
AO-85 11 Feb 10:45:59 10:51:20 63° 308° (NW) 10:56:49 145.980
POLYITAN 1 11 Feb 10:46:14 10:50:28 89° 75° (ENE) 10:54:43 437.675
ESTCUBE 1 11 Feb 10:46:47 10:50:14 21° 93° (E) 10:53:39 437.505/2401.250
QB50P2 11 Feb 10:46:47 10:51:02 88° 265° (W) 10:55:17 145.880/145.840
RS-15 11 Feb 10:48:48 10:59:12 49° 110° (ESE) 11:10:08 29.354- 29.394
UNISAT 6 11 Feb 10:54:42 10:57:49 19° 267° (W) 11:00:57 437.425
GONETS M04 11 Feb 11:02:49 11:09:18 23° 298° (WNW) 11:15:52
Cosmos 2499 11 Feb 11:10:26 11:18:33 41° 289° (WNW) 11:26:49 435.465 / 435.565
POPSAT HIP 1 11 Feb 11:16:24 11:20:26 43° 261° (W) 11:24:28 437.405
HO-68 11 Feb 11:16:29 11:19:12 12° 313° (NW) 11:21:55 435.675
NANOSAT C BR1 11 Feb 11:20:05 11:24:04 40° 262° (W) 11:28:04 145.865
DUCHIFAT 1 11 Feb 11:20:44 11:24:43 41° 261° (W) 11:28:43 145.980
ZACube-1 11 Feb 11:21:47 11:23:40 13° 297° (WNW) 11:25:33 437.345
HUMSAT D 11 Feb 11:24:32 11:28:17 33° 290° (WNW) 11:32:03 437.325/437.525
QB50P1 11 Feb 11:29:13 11:32:59 31° 263° (W) 11:36:46 145.935-145.965
FUNcube-1 11 Feb 11:30:36 11:31:46 11° 299° (WNW) 11:32:57 145.935
50 SAT 11 Feb 11:31:13 11:35:01 69° 102° (ESE) 11:38:49 437.505
VELOX 1 11 Feb 11:37:02 11:41:26 60° 101° (ESE) 11:45:46 145.980
DELFI C3 11 Feb 11:41:53 11:42:12 10° 299° (WNW) 11:42:31 145.870
CUSAT 1 11 Feb 11:44:01 11:48:52 26° 64° (ENE) 11:52:45 437.405
AIST 1 11 Feb 11:53:09 11:56:00 17° 290° (WNW) 11:58:52
PCSat 11 Feb 11:53:31 11:58:22 33° 311° (NW) 12:03:16 145.827
AISAT 11 Feb 11:54:01 11:58:28 85° 284° (WNW) 12:02:50 437.250
YUBILEINY 11 Feb 11:54:23 11:55:42 10° 50° (NE) 11:57:00 435.215
UKube-1 11 Feb 11:57:27 12:01:48 89° 281° (WNW) 12:06:07 .
SPROUT 11 Feb 12:04:00 12:07:56 35° 98° (E) 12:11:51 437.525
TISAT 1 11 Feb 12:07:45 12:10:00 14° 91° (E) 12:12:15 437.305
CUBEBUG 1 11 Feb 12:08:48 12:13:10 72° 285° (WNW) 12:17:28 437.445
DX 1 11 Feb 12:12:39 12:16:54 52° 288° (WNW) 12:21:06 434.975-435.025
BUGSAT 1 11 Feb 12:16:10 12:19:15 20° 266° (W) 12:22:20 437.445
JAS-2 11 Feb 12:16:37 12:23:38 43° 68° (ENE) 12:30:02 435.910
ESTCUBE 1 11 Feb 12:22:56 12:27:12 40° 290° (WNW) 12:31:25 437.505/2401.250
AO-7 11 Feb 12:23:18 12:25:49 12° 39° (NE) 12:28:20 29.400- 29.500
AO-85 11 Feb 12:29:40 12:32:58 16° 328° (NNW) 12:36:16 145.980
Oscar 19 11 Feb 12:30:09 12:35:15 61° 72° (ENE) 12:40:21 437.125/150
DANDE 11 Feb 12:30:47 12:37:27 43° 70° (ENE) 12:42:34 436.750
SO-50 11 Feb 12:36:00 12:40:30 36° 47° (NE) 12:44:50 436.795
SWISSCUBE 11 Feb 12:58:15 12:59:24 11° 88° (E) 13:00:33 437.505
RS-15 11 Feb 13:00:30 13:11:29 56° 315° (NW) 13:23:09 29.354- 29.394
VELOX 1 11 Feb 13:14:58 13:17:25 15° 298° (WNW) 13:19:51 145.980
Gurwin Techsat 1B 11 Feb 13:15:10 13:20:22 61° 72° (ENE) 13:25:37 435.225
CUSAT 1 11 Feb 13:26:12 13:31:18 35° 272° (W) 13:35:16 437.405
ITUPSAT 1 11 Feb 13:33:47 13:37:36 23° 94° (E) 13:41:24 437.325
SPROUT 11 Feb 13:40:28 13:43:42 21° 294° (WNW) 13:46:55 437.525
BEESAT 11 Feb 13:40:51 13:44:57 27° 95° (E) 13:49:01 436.000
TISAT 1 11 Feb 13:41:55 13:45:59 50° 288° (WNW) 13:50:00 437.305
ITAMSAT 1 11 Feb 13:42:52 13:47:56 58° 72° (ENE) 13:53:04 435.822/435.867
YUBILEINY 11 Feb 13:46:26 13:55:03 52° 75° (ENE) 14:03:34 435.215
Cosmos 2491 11 Feb 13:55:08 14:02:07 28° 82° (E) 14:09:06 435.465 / 435.565
JAS-2 11 Feb 14:01:32 14:08:37 40° 263° (W) 14:15:08 435.910
ISS 11 Feb 14:08:17 14:09:07 11° 130° (SE) 14:09:58 145.825
AO-7 11 Feb 14:08:41 14:16:31 47° 61° (ENE) 14:24:22 29.400- 29.500
Oscar 19 11 Feb 14:11:38 14:14:58 17° 269° (W) 14:18:20 437.125/150
Cosmos 2504 11 Feb 14:13:39 14:19:07 18° 58° (ENE) 14:24:22 435.465 / 435.565
DANDE 11 Feb 14:14:18 14:20:03 30° 276° (W) 14:24:38 436.750
SO-50 11 Feb 14:16:40 14:20:55 32° 246° (WSW) 14:25:01 436.795
SWISSCUBE 11 Feb 14:32:58 14:37:48 83° 285° (WNW) 14:42:37 437.505
KKS-1 11 Feb 14:51:36 14:54:51 20° 93° (E) 14:58:06 437.445
M-CUBED/EXP-1 PRIME 11 Feb 14:54:55 14:58:19 41° 68° (ENE) 15:01:32 437.505
Gurwin Techsat 1B 11 Feb 14:57:11 15:00:44 18° 269° (W) 15:04:19 435.225
MOZHAYETS 4 11 Feb 15:01:06 15:01:19 10° 87° (E) 15:01:31
AUBIESAT-1 11 Feb 15:03:02 15:06:25 42° 67° (ENE) 15:09:39 437.475
ITUPSAT 1 11 Feb 15:11:04 15:15:35 40° 290° (WNW) 15:20:04 437.325
HORYU 2 11 Feb 15:17:07 15:21:14 40° 70° (ENE) 15:25:22 437.375
RS-15 11 Feb 15:17:58 15:27:22 27° 347° (NNW) 15:37:10 29.354- 29.394
BEESAT 11 Feb 15:18:27 15:22:45 34° 292° (WNW) 15:27:03 436.000
ITAMSAT 1 11 Feb 15:24:18 15:27:48 18° 269° (W) 15:31:19 435.822/435.867
ISS 11 Feb 15:41:50 15:45:05 87° 146° (SSE) 15:48:20 145.825
YUBILEINY 11 Feb 15:43:45 15:51:31 36° 275° (W) 15:59:15 435.215
Cosmos 2491 11 Feb 15:49:38 15:58:16 65° 282° (WNW) 16:06:56 435.465 / 435.565
BEESAT 3 11 Feb 15:50:21 15:52:44 15° 111° (ESE) 15:55:07 437.485
Cubesat XI-IV 11 Feb 15:53:30 15:54:20 10° 54° (NE) 15:55:09 437.490
AO-7 11 Feb 16:01:27 16:09:17 43° 260° (W) 16:17:11 29.400- 29.500
STARS 11 Feb 16:05:04 16:09:25 65° 102° (ESE) 16:13:45 437.465
Cosmos 2504 11 Feb 16:05:25 16:14:06 81° 81° (E) 16:22:08 435.465 / 435.565
SWISSCUBE 11 Feb 16:13:38 16:14:49 11° 303° (WNW) 16:15:59 437.505
BEESAT 2 11 Feb 16:17:26 16:20:21 19° 112° (ESE) 16:23:16 435.950
KKS-1 11 Feb 16:27:26 16:31:35 40° 290° (WNW) 16:35:42 437.445
M-CUBED/EXP-1 PRIME 11 Feb 16:31:37 16:33:08 12° 261° (W) 16:34:36 437.505
MOZHAYETS 4 11 Feb 16:34:24 16:39:04 84° 287° (WNW) 16:43:44
AUBIESAT-1 11 Feb 16:39:46 16:41:10 12° 262° (W) 16:42:33 437.475
O/OREOS (USA 219) 11 Feb 16:53:39 16:57:56 37° 61° (ENE) 17:02:13 437.305
HORYU 2 11 Feb 16:54:45 16:57:58 20° 267° (W) 17:01:12 437.375
CUTE-I 11 Feb 17:13:55 17:19:04 52° 70° (ENE) 17:24:15 437.470
PCSat 11 Feb 17:16:24 17:16:44 10° 30° (NNE) 17:17:03 145.827
BRITE-PL 11 Feb 17:17:36 17:22:34 32° 68° (ENE) 17:27:24 437.365/2234.400
ISS 11 Feb 17:19:10 17:21:51 23° 345° (NNW) 17:24:33 145.825
CUBESAT XI-V 11 Feb 17:20:43 17:24:55 32° 96° (E) 17:29:05 437.345
LilacSat-2 11 Feb 17:24:09 17:27:49 46° 73° (ENE) 17:31:28 437.200
BEESAT 3 11 Feb 17:26:12 17:30:05 50° 308° (NW) 17:34:00 437.485
Cubesat XI-IV 11 Feb 17:28:08 17:33:24 69° 73° (ENE) 17:38:45 437.490
RS-15 11 Feb 17:34:49 17:45:00 31° 22° (NNE) 17:55:25 29.354- 29.394
AO-85 11 Feb 17:37:26 17:41:51 26° 41° (NE) 17:45:58 145.980
STARS 11 Feb 17:43:08 17:45:16 13° 299° (WNW) 17:47:24 437.465
DOVE 4 11 Feb 17:46:49 17:49:46 16° 63° (ENE) 17:52:38 437.250
Cosmos 2491 11 Feb 17:53:11 17:57:07 13° 305° (NW) 18:01:05 435.465 / 435.565
BEESAT 2 11 Feb 17:54:09 17:57:58 41° 309° (NW) 18:01:49 435.950
Cosmos 2504 11 Feb 18:00:25 18:06:19 21° 282° (WNW) 18:11:59 435.465 / 435.565
HO-68 11 Feb 18:09:13 18:14:48 25° 57° (ENE) 18:20:24 435.675
GOMX 1 11 Feb 18:13:01 18:18:13 52° 72° (ENE) 18:23:10 467.674
MOZHAYETS 4 11 Feb 18:14:56 18:15:28 10° 301° (WNW) 18:16:00
AIST 2 11 Feb 18:26:58 18:30:58 47° 118° (ESE) 18:34:59 435.215
CINEMA 3 11 Feb 18:27:31 18:29:30 13° 62° (ENE) 18:31:28 145.822/145.860
O/OREOS (USA 219) 11 Feb 18:33:30 18:37:07 23° 258° (WSW) 18:40:44 437.305
